{"data":{"norad_id":44873,"intl_designator":"2019-092A","name":"CSG-1","alt_names":[],"object_type":"PAYLOAD","status":"ACTIVE","operator":null,"country":"IT","launch_date":"2019-12-18","launch_site_code":"FRGUI","launch_vehicle":null,"mission":null,"orbit_class":"UNKNOWN","rcs_meters":null,"size_class":null,"mass_kg":null,"dimensions":null,"purposes":["earth_obs"],"wikipedia_slug":null,"has_3d_model":false,"image_url":null,"decayed_at":null,"tle_current":{"epoch":"2026-09-20T04:10:10.824960Z","epoch_age_seconds":46411,"freshness":"FRESH","line1":"1 44873U 19092A   26263.17373640  .00000234  00000+0  36025-4 0  9995","line2":"2 44873  97.8916  85.4265 0001440  86.6866 273.4512 14.82146296365547","mean_motion":14.82146296,"eccentricity":0.000144,"inclination_deg":97.8916,"raan_deg":85.4265,"arg_perigee_deg":86.6866,"mean_anomaly_deg":273.4512,"bstar":3.6025e-5,"rev_number":36554,"period_min":97.156401084445,"perigee_km":621.54939814581,"apogee_km":623.56559816128,"semimajor_km":7000.6944981535,"source":"CELESTRAK","updated_at":"2026-09-20T09:00:33.975777Z"}}}